Weather History for KLLJ - August, 2014

Change the Weather History Date:

Friday, August 29, 2014

  Actual Average Record
Temperature  
Mean Temperature 67 °F 62 °F  
Max Temperature 87 °F 81 °F 94 °F (1948)
Min Temperature 47 °F 44 °F 28 °F (1927)
Degree Days  
Heating Degree Days 0 4  
Month to date heating degree days 62 44  
Since 1 June heating degree days 229 230  
Since 1 July heating degree days 63 65  
Cooling Degree Days 2 1  
Month to date cooling degree days 70 83  
Year to date cooling degree days 305 239  
Since 1 June cooling degree days 305 237  
Growing Degree Days 18 (Base 50)    
Moisture  
Dew Point 38 °F    
Average Humidity 42    
Maximum Humidity 71    
Minimum Humidity 13    
Precipitation  
Precipitation 0.00 in 0.03 in 0.34 in (1934)
Month to date precipitation 1.59 0.74  
Year to date precipitation 4.71 7.34  
Sea Level Pressure  
Sea Level Pressure 29.85 in    
Wind  
Wind Speed 5 mph (West)    
Max Wind Speed 24 mph    
Max Gust Speed 34 mph    
Visibility 10 miles    
Events      
T = Trace of Precipitation, MM = Missing Value Source: NWS Daily Summary

Daily Weather History Graph

Daily Weather History Graph

Search for Another Location

Airport or City:

Trip Planner

Search our weather history database for the weather conditions in past years. The results will help you decide how hot, cold, wet, or windy it might be!

Date:

Astronomy

Aug. 29, 2014 Rise Set
Actual Time 6:56 AM MDT 8:18 PM MDT
Civil Twilight 6:25 AM MDT 8:48 PM MDT
Nautical Twilight 5:49 AM MDT 9:25 PM MDT
Astronomical Twilight 5:10 AM MDT 10:03 PM MDT
Moon 11:00 AM MDT (8/29) 10:06 PM MDT (8/29)
Length of Visible Light 14h 22m
Length of Day
13h 22m
Waxing Crescent, 15% of the Moon is Illuminated
Aug 29
Waxing Crescent
Sep 2
First Quarter
Sep 8
Full
Sep 15
Last Quarter
Sep 24
New

Hourly Weather History & Observations

Time (MDT) Temp. Dew Point Humidity Pressure Visibility Wind Dir Wind Speed Gust Speed Precip Events Conditions
12:55 AM 63.0 °F 39.0 °F 41% 29.91 in 10.0 mi SSE 4.6 mph - N/A   Clear
1:55 AM 60.1 °F 39.9 °F 47% 29.91 in 10.0 mi Calm Calm - N/A   Clear
2:55 AM 55.9 °F 41.0 °F 57% 29.92 in 10.0 mi Calm Calm - N/A   Clear
3:55 AM 55.0 °F 41.0 °F 59% 29.92 in 10.0 mi Calm Calm - N/A   Clear
4:55 AM 52.0 °F 42.1 °F 69% 29.94 in 10.0 mi Calm Calm - N/A   Clear
5:55 AM 52.0 °F 42.1 °F 69% 29.94 in 10.0 mi Calm Calm - N/A   Clear
6:55 AM 50.0 °F 41.0 °F 71% 29.96 in 10.0 mi Calm Calm - N/A   Clear
7:55 AM 53.1 °F 42.1 °F 66% 29.97 in 10.0 mi Calm Calm - N/A   Clear
8:55 AM 57.9 °F 41.0 °F 53% 29.96 in 10.0 mi Calm Calm - N/A   Clear
9:55 AM 62.1 °F 43.0 °F 50% 29.95 in 10.0 mi NNE 4.6 mph - N/A   Clear
10:55 AM 66.0 °F 43.0 °F 43% 29.94 in 10.0 mi NNE 3.5 mph - N/A   Clear
11:55 AM 71.1 °F 42.1 °F 35% 29.90 in 10.0 mi Variable 3.5 mph - N/A   Clear
12:55 PM 75.9 °F 39.9 °F 27% 29.85 in 10.0 mi NE 4.6 mph - N/A   Clear
1:55 PM 82.0 °F 46.0 °F 28% 29.81 in 10.0 mi NNE 4.6 mph - N/A   Scattered Clouds
2:55 PM 86.0 °F 30.9 °F 14% 29.78 in 10.0 mi WSW 13.8 mph 23.0 mph N/A   Scattered Clouds
3:55 PM 84.9 °F 30.9 °F 14% 29.76 in 10.0 mi WSW 5.8 mph - N/A   Clear
4:55 PM 84.9 °F 30.9 °F 14% 29.75 in 10.0 mi SW 12.7 mph 20.7 mph N/A   Scattered Clouds
5:55 PM 86.0 °F 33.1 °F 15% 29.73 in 10.0 mi WNW 13.8 mph - N/A   Clear
6:55 PM 82.0 °F 32.0 °F 16% 29.74 in 10.0 mi West 15.0 mph - N/A   Clear
7:55 PM 78.1 °F 33.1 °F 19% 29.73 in 10.0 mi West 10.4 mph - N/A   Clear
8:55 PM 75.9 °F 32.0 °F 20% 29.75 in 10.0 mi WSW 8.1 mph - N/A   Clear
9:55 PM 72.0 °F 37.0 °F 28% 29.75 in 10.0 mi West 9.2 mph - N/A   Clear
10:55 PM 73.0 °F 35.1 °F 25% 29.74 in 10.0 mi South 6.9 mph - N/A   Mostly Cloudy
11:55 PM 68.0 °F 39.9 °F 36% 29.74 in 10.0 mi Variable 4.6 mph - N/A   Scattered Clouds